Preview of NWS' New Version of Forecast
This preview is not operational and should not be used for support decisions.

Regional Weather Roundup (RWR)

Issued by National Weather Service (NWS)

                            
000
ASUS46 KSEW 231610
RWRWA 

WASHINGTON REGIONAL WEATHER ROUNDUP
NATIONAL WEATHER SERVICE SEATTLE WA
900 AM PDT SUN JUN 23 2019

NOTE:"FAIR" INDICATES FEW OR NO CLOUDS BELOW 12,000 FEET WITH NO 
SIGNIFICANT WEATHER AND/OR OBSTRUCTIONS TO VISIBILITY.

WAZ507-509-555>559-231700-
SEATTLE, TACOMA, EVERETT, AND VICINITY
  
CITY           SKY/WX    TMP DP  RH WIND       PRES   REMARKS
EVERETT        LGT RAIN  52  50  93 NE3       30.19R FOG              
BOEING FIELD   CLOUDY    56  50  80 S8        30.18S                  
RENTON         CLOUDY    56  53  90 S5        30.19R FOG              
SEATAC AIRPORT CLOUDY    55  47  74 S9        30.18S                  
JBLM-MCCHORD   CLOUDY    56  52  86 SW7       30.19R                  
PUYALLUP       CLOUDY    55  50  82 VRB5      30.19S                  
BREMERTON      CLOUDY    53  49  86 CALM      30.18S                  
JBLM-FT LEWIS  CLOUDY    56  53  89 SE7       30.18R                  
TACOMA NARROWS CLOUDY    54  47  77 S8        30.19R                  
$$
 
WAZ001-503-506-510-514-515-231700-
NORTH INTERIOR
  
CITY           SKY/WX    TMP DP  RH WIND       PRES   REMARKS
BELLINGHAM     CLOUDY    56  50  80 S7        30.13S                  
FRIDAY HARBOR  CLOUDY    56  48  74 CALM      30.15R                  
EASTSOUND      CLOUDY    57  52  82 S6        30.13R                  
PORT ANGELES   MOSUNNY   54  47  77 W14G24    30.17S                  
EDIZ HOOK      FAIR      55  49  79 NW15      30.17R                  
PORT TOWNSEND  CLOUDY    57  50  77 W12       30.16S                  
NAS WHIDBEY    PTSUNNY   58  48  69 W15       30.20S                  
ARLINGTON      CLOUDY    55  48  77 NW7       30.18S                  
BURLINGTON     CLOUDY    55  52  88 S5        30.16S                  
$$
 
WAZ020-022-039-040-504-511-512-231700-
SOUTHWEST INTERIOR
  
CITY           SKY/WX    TMP DP  RH WIND       PRES   REMARKS
SHELTON        CLOUDY    57  47  69 W7        30.15S                  
OLYMPIA        CLOUDY    57  47  69 W7        30.18S                  
CHEHALIS       CLOUDY    57  50  77 VRB6      30.21S                  
KELSO          CLOUDY    58  49  72 VRB6      30.24S                  
VANCOUVER      CLOUDY    57  46  66 VRB5      30.24S                  
SCAPPOOSE, OR  CLOUDY    57  48  72 VRB6      30.23S                  
PORTLAND, OR   PTSUNNY   58  46  64 CALM      30.24S                  
$$
 
WAZ021-516-517-231700-
WASHINGTON COAST
  
CITY           SKY/WX    TMP DP  RH WIND       PRES   REMARKS
FORKS          CLOUDY    56  48  74 W6        30.21S                  
HOQUIAM        CLOUDY    56  53  90 W13       30.22S                  
ASTORIA, OR    CLOUDY    56  52  86 W7        30.24S                  
$$
 
WAZ019-023-024-040-567>569-231700-
CASCADE MOUNTAINS AND COLUMBIA GORGE
  
CITY           SKY/WX    TMP DP  RH WIND       PRES   REMARKS
STAMPEDE PASS  FOG       45  42  89 VRB7      30.13R VSB 1/4          
TROUTDALE, OR  CLOUDY    58  48  69 NW6       30.24S                  
HOOD RIVER, OR CLOUDY    57  45  62 NW14G21   30.17R                  
THE DALLES, OR SUNNY     65  47  52 NW17      30.13R                  
$$

WAZ026-027-041>044-520-521-231700-
EAST SLOPES
  
CITY           SKY/WX    TMP DP  RH WIND       PRES   REMARKS
OMAK             N/A     68  44  42 SE5       29.97S                  
WENATCHEE      MOSUNNY   69  40  34 W16G25    29.98S                  
ELLENSBURG     MOSUNNY   64  46  52 NW23G33   30.04R                  
YAKIMA         MOSUNNY   69  43  38 W9G18     30.04S                  
SUNNYSIDE ARPT SUNNY     67  49  52 W5        30.04                   
YAKIMA TC      FAIR      69  39  34 NW17G24   30.02S                  
$$

WAZ028-034-035-231700-
COLUMBIA BASIN
  
CITY           SKY/WX    TMP DP  RH WIND       PRES   REMARKS
EPHRATA        MOSUNNY   71  37  28 NW10      29.98F                  
MOSES LAKE     MOSUNNY   68  44  42 SW7       30.00S                  
PASCO          SUNNY     71  45  39 W12       30.04S                  
RICHLAND ARPT  SUNNY     71  44  37 SW14G21   30.03                   
HERMISTON, OR  SUNNY     68  47  46 SW20      30.06R                  
$$

WAZ036>038-231700-
NORTHEAST WASHINGTON
  
CITY           SKY/WX    TMP DP  RH WIND       PRES   REMARKS
SPOKANE GEIGER PTSUNNY   59  41  51 SW16      29.99S                  
SPOKANE FELTS  PTSUNNY   62  43  49 SW12G21   30.00R                  
FAIRCHILD AFB  PTSUNNY   60  43  53 SW15      29.99R                  
COEURDALENE,ID MOSUNNY   59  45  59 S15G21    30.00F                  
DEER PARK      PTSUNNY   59  43  55 S12       29.99S                  
$$

WAZ029>033-231700-
SOUTHEAST WASHINGTON
  
CITY           SKY/WX    TMP DP  RH WIND       PRES   REMARKS
PULLMAN        PTSUNNY   60  46  59 SW17      30.05S                  
LEWISTON, ID   MOSUNNY   67  44  43 VRB3      30.03R                  
WALLA WALLA    CLOUDY    62  46  55 S16G22    30.07S                  
PENDLETON, OR  PTSUNNY   63  44  50 W21G26    30.07R                  
$$